Location: Newark
(14.1000°N, 87.2167°W)
Time: 11:28:31
(UTC+00:00)

Tiangong - Visible Passes

Search period start: 17 September 2021 00:00
Search period end: 27 September 2021 00:00
Orbit: 380 x 384 km, 41.5° (Epoch: 17 September)

Date Brightness Start Highest point End Pass type
(mag) Time Alt. Az. Time Alt. Az. Time Alt. Az.
19 Sep 3.8 10:36:14 10° S 10:38:22 17° SE 10:40:29 10° E visible
20 Sep 1.1 11:11:24 10° WSW 11:14:29 62° NW 11:17:34 10° NE visible
21 Sep 2.0 10:13:56 42° SE 10:14:01 42° SE 10:16:59 10° ENE visible
22 Sep 2.4 10:49:13 20° WNW 10:50:11 24° NW 10:52:47 10° NNE visible
23 Sep 4.0 09:52:10 14° NE 09:52:10 14° NE 09:52:42 10° NE visible
